Regional Weather Roundup
Issued by NWS Grand Forks, ND

Home | Current Version | Previous Version | Graphics & Text | Print | Product List | Glossary On
Versions: 1 2 3 4 5 6 7 8 9 10 11 12 13 14 15 16 17 18 19 20 21 22 23 24 25 26 27 28 29 30 31 32 33 34 35 36 37 38 39 40 41 42 43 44 45 46 47 48 49 50
000
ASUS43 KFGF 220831
RWRFGF
PRAIRIE TO PINES  WEATHER ROUNDUP
NATIONAL WEATHER SERVICE EASTERN NORTH DAKOTA/GRAND FORKS ND
300 AM CDT SAT JUL 22 2017

 **SATELLITE DATA USED TO AUGMENT SKY COVER AT AUTOMATED STATIONS**
 *****  WEATHER ACROSS EASTERN NORTH DAKOTA  *****

CITY           SKY/WX    TMP DP  RH WIND       PRES   REMARKS
GRAND FORKS    FAIR      70  70 100 SW5       29.77F FOG
GRAND FRKS AFB FAIR      70  70 100 W9        29.78R
DEVILS LAKE    FAIR      67  65  93 SW5       29.83S
FARGO          TSTM      68  66  93 N33G44    29.80R FOG
WAHPETON ARPT  FAIR      66  63  88 CALM      29.77F
$$

 ***** WEATHER ACROSS CENTRAL AND WESTERN NORTH DAKOTA  *****

CITY           SKY/WX    TMP DP  RH WIND       PRES   REMARKS
BISMARCK       FAIR      63  62  97 W3        29.87R
MINOT          FAIR      66  51  58 W12       29.86R
JAMESTOWN      FAIR      66  61  84 E3        29.83F
MINOT AFB      FAIR      57  54  88 W8        29.85R
GARRISON         N/A     56  55  97 W3        29.88R
WILLISTON      FAIR      62  47  57 NE3       29.93S
DICKINSON      FAIR      55  47  74 S6        29.95R
HETTINGER      FAIR      58  47  66 NW3       29.97R
$$

 *****  OTHER AIRPORT OBSERVATIONS IN OUR AREA  *****

CITY           SKY/WX    TMP DP  RH WIND       PRES   REMARKS
WALHALLA       NOT AVBL
GRAFTON AIRPOR PTSUNNY   66  64  94 CALM      29.80F
VALLEY CITY AR PTSUNNY   66  66 100 NE6       29.85F
CANDO          NOT AVBL
CAVALIER APRT  FAIR      63  63 100 SE8       29.75F
GWINNER        PTSUNNY   68  66  94 CALM      29.80R
SHEYENNE NWR     N/A     66  66 100 CALM      29.95S
ROLLA            N/A     59  59 100 W7        29.82S
 ***** THE ABOVE OBSERVATIONS ARE NON NWS ARE NOT QUALITY
       CONTROLLED AND MAY MIS-REPORT RAIN FOR SNOW...
$$

  *****  WEATHER ACROSS NORTHERN MINNESOTA  *****

CITY           SKY/WX    TMP DP  RH WIND       PRES   REMARKS
FLAG ISLAND    FAIR      66  59  77 SE7       29.76F
WARROAD        FAIR      64  61  88 CALM      29.82R
ROSEAU         FAIR      63  57  82 E3        29.80R
HALLOCK        LGT RAIN  66  64  94 CALM      29.77F
THF RVR FALLS  FAIR      65  64  97 NE6       29.82R
BAUDETTE       FAIR      60  59  96 E3        29.80R
WASKISH        NOT AVBL
CROOKSTON      LGT RAIN  66  64  94 SW7       29.79F
STEPHEN NDAWN    N/A     68  66  94 W3          N/A
GREENBUSH NDAW   N/A     64  63  94 S5          N/A
$$
  *****  WEATHER ACROSS CENTRAL AND WEST MINNESOTA  *****

CITY           SKY/WX    TMP DP  RH WIND       PRES   REMARKS
FOSSTON        FAIR      63  61  94 N7        29.84R
BEMIDJI        FAIR      64  63  99 CALM      29.80S
PARK RAPIDS    FAIR      66  63  90 CALM      29.78S
ELBOW LAKE     FAIR      66  65  97 E6        29.79F
WADENA         FAIR      64  64 100 SW3       29.78R
DETROIT LAKES  FAIR      70  66  88 SW6       29.80R
MOORHEAD       MOCLDY    70  66  88 NW17      29.84R
FERGUS FALLS   FAIR      66  66 100 S5        29.78R
MORRIS MN      FAIR      72  68  88 S10       29.75F
STAPLES        FAIR      64  63  94 CALM      29.77F
$$
  *****  WEATHER ELSEWHERE ACROSS MINNESOTA  *****

CITY           SKY/WX    TMP DP  RH WIND       PRES   REMARKS
DULUTH         FOG       61  61 100 CALM      29.81R VSB 3/4
INTRNTL FALLS  FAIR      54  53  97 CALM      29.81S
ELY            FAIR      54  54 100 CALM      29.83R
CLOQUET        FOG       63  61  94 CALM      29.81S VSB 1/4
WHEATON        FAIR      72  66  83 S12G18    29.74F
BRAINERD       FOG       63  62  97 CALM      29.78F VSB 3/4
HIBBING        FOG       56  56 100 CALM      29.80S VSB 3/4
ALEXANDRIA     FAIR      68  66  93 S6        29.81F
SAINT CLOUD    FAIR      67  66  97 SW5       29.77F
MINNEAPOLIS    MOCLDY    72  65  78 S10       29.77F
$$

  *****  WEATHER ACROSS SOUTH DAKOTA  *****

CITY           SKY/WX    TMP DP  RH WIND       PRES   REMARKS
SIOUX FALLS    CLOUDY    75  73  93 NE14      29.87F
BROOKINGS      FAIR      70  66  88 SE15      29.79F
WATERTOWN      FAIR      67  67 100 SE6       29.81R
HURON          FAIR      67  66  97 CALM      29.79F
SISSETON         N/A     73  71  93 S13G23    29.76F
ABERDEEN       FAIR      67  67 100 W5        29.82F
MITCHELL       FAIR      69  67  93 SE13      29.80F
PIERRE         FAIR      69  65  86 NW3       29.86R
MOBRIDGE       FAIR      70  66  87 E5        29.83F
RAPID CITY     FAIR      70  43  37 W9        30.00R
$$

  *****  SOME WEATHER IN NEARBY STATES *****

CITY           SKY/WX    TMP DP  RH WIND       PRES   REMARKS
GLASGOW MT     FAIR      59  39  47 W5        29.98R
GREAT FALLS MT FAIR      59  32  36 NE6       30.12R
CHEYENNE WY    FAIR      60  53  77 SW12      30.22S
SCOTTSBLUFF NE FAIR      72  52  49 S7        30.09R
OMAHA NE       MOCLDY    87  67  51 CALM      29.73R HX  90
DES MOINES IA  FAIR      83  73  72 NW5       29.74R
DAVENPORT IA   TSTM      69  68  96 E15       29.88F FOG
CHICAGO IL     TSTM      72  69  90 SW5       29.81F
EAU CLAIRE WI  FAIR      68  66  93 CALM      29.77S
LA CROSSE WI   CLOUDY    73  70  90 S8        29.80F
$$

  *****  SOME NATIONAL WEATHER *****

CITY           SKY/WX    TMP DP  RH WIND       PRES   REMARKS
LA GUARDIA NY  MOCLDY    81  71  71 NW10      29.85S
RALEIGH NC     MOCLDY    79  72  79 SW7       29.96F
ATLANTA GA     FAIR      75  71  87 SW5       29.99F
NEW ORLEANS LA MOCLDY    82  77  84 CALM      29.98S HX  90
OKLAHOMA CITY  FAIR      79  68  69 S9        29.94F
ALBUQUERQUE NM MOCLDY    71  55  56 SE8       30.17S
SALT LAKE CITY FAIR      81  52  36 S8        30.04R
LOS ANGELES CA FAIR      68  63  84 VRB3      29.90S
BOISE ID       FAIR      67  45  45 SW6       30.04R
SEATTLE WA     MOCLDY    63  54  72 S5        30.16S
$$

*** WEATHER ACROSS MANITOBA...SASKATCHEWAN AND ONTARIO ***
                ***ONTARIO***

CITY           SKY/WX    TMP DP  RH WIND       PRES   REMARKS
GERALDTON      PTCLDY    52  43  71 E6        29.94F
THUNDER BAY    CLOUDY    63  54  72 E6        29.83F
SIOUX LOOKOUT  MOCLDY    61  54  77 NE3       29.87S
TORONTO        CLOUDY    70  59  68 W5        29.90R
BIG TROUT LK   CLEAR     50  48  93 W2        29.93S
PICKLE LAKE    NOT AVBL
DRYDEN         CLOUDY    61  55  82 E6        29.85R
KENORA         MOCLDY    63  59  88 E8        29.82F
$$
                *** MANITOBA***

CITY           SKY/WX    TMP DP  RH WIND       PRES   REMARKS
BRANDON        FOG       59  57  94 W5        29.78R VSB 1/8
DAUPHIN        CLOUDY    61  59  94 NW5       29.79R
ISLAND LAKE    NOT AVBL
PILOT MOUND      N/A     59  57  94 N5          N/A
THE PAS        CLOUDY    63  48  59 E6        29.85F
THOMPSON       CLEAR     43  39  87 VRB2      29.93R
WINNIPEG       PTCLDY    63  61  94 SE17      29.72F
LYNN LAKE      CLEAR     46  43  87 CALM      29.94R
CHURCHILL      CLEAR     50  45  81 SW6       29.92S
GILLAM         PTCLDY    48  45  87 SE6       29.96R
$$
                ***SASKATCHEWAN***

CITY           SKY/WX    TMP DP  RH WIND       PRES   REMARKS
ESTEVAN        PTCLDY    55  52  88 W17       29.89R
KINDERSLEY     CLEAR     52  50  93 NW6       29.96R
LLOYDMINSTER   CLEAR     54  54 100 W7        29.95R
PRINCE ALBERT  LGT RAIN  57  55  94 NE5       29.91R
REGINA         FOG       50  48  93 W5        29.91  VSB 1/2
YORKTON        CLOUDY    57  55  94 W7        29.86R
N. BATTLEFORD  FOG       50  50 100 CALM      29.94R VSB 1/8
LA RONGE       PTCLDY    50  50 100 VRB2      29.93R
SASKATOON      MOCLDY    52  50  93 W5        29.93R
SWIFT CURRENT  CLEAR     55  50  82 W10G17    29.96S
$$
NOTE: THESE ARE AUTOMATED STATIONS WITH LIMITED QUALITY CONTROL
      "FAIR" INDICATES FEW OR NO CLOUDS BELOW 12,000 FEET WITH NO
      SIGNIFICANT WEATHER AND/OR OBSTRUCTIONS TO VISIBILITY.
      SKY/WX - SKY CONDITION AND SIGNIFICANT WEATHER.
      TMP - AIR TEMPERATURE.    DP   - DEWPOINT TEMPERATURE.
      RH  - RELATIVE HUMIDITY.  PRES - PRESSURE.
      HX  - HEAT INDEX.         WCI  - WIND CHILL INDEX.
$




USA.gov is the U.S. government's official web portal to all federal, state and local government web resources and services.